Location: Hains Lake
(37.8540°N, 99.8578°W)
Time: 20:05:17
(UTC+00:00)

Vanguard 3 - Pass Details

Date: 25 April 2021
Orbit: 508 x 3262 km, 33.4° (Epoch: 13 May)

Event Time Altitude Azimuth Distance (km) Brightness Sun altitude
Rises 03:45:30 0° 211° (SSW) 6,111 11.5 -24.9°
Reaches altitude 10° 03:51:26 10° 198° (SSW) 4,553 10.7 -25.8°
Enters shadow 03:54:04 15° 188° (S) 3,906 10.3 -26.2°
